DW6891 Weather Reports


time (UTC)temp
C
wind
direction
speed
KPH
gust
KPH
rain 1hr
cm
rain 24hr
cm
rain mn
cm
humidity
%
barometer
mb
20260505101957 11 71 0.0 3.2 0.00 0.00 0.00 92 1013.2
20260505101458 11 90 0.0 4.8 0.00 0.00 0.00 92 1013.2
20260505100958 10 205 1.6 3.2 0.00 0.00 0.00 92 1013.1
20260505100458 10 231 0.0 1.6 0.00 0.00 0.00 92 1013.1
20260505100000 10 231 0.0 0.0 0.00 0.00 0.00 92 1013.1
20260505095457 10 231 0.0 0.0 0.00 0.00 0.00 92 1013.0
20260505094958 10 231 0.0 0.0 0.00 0.00 0.00 93 1012.9
20260505094459 10 231 0.0 1.6 0.00 0.00 0.00 92 1012.8
20260505093959 10 231 0.0 1.6 0.00 0.00 0.00 92 1012.8
20260505093458 10 231 0.0 0.0 0.00 0.00 0.00 92 1012.8
20260505092959 10 231 0.0 0.0 0.00 0.00 0.00 92 1012.8
20260505092458 10 231 0.0 0.0 0.00 0.00 0.00 92 1012.8
20260505091957 10 231 0.0 0.0 0.00 0.00 0.00 92 1012.8
20260505091500 10 231 0.0 0.0 0.00 0.00 0.00 91 1012.7
20260505090957 10 231 0.0 0.0 0.00 0.00 0.00 91 1012.7
20260505090459 10 231 0.0 0.0 0.00 0.00 0.00 91 1012.6
20260505085457 10 231 0.0 0.0 0.00 0.00 0.00 91 1012.6
20260505084958 10 231 0.0 0.0 0.00 0.00 0.00 91 1012.6
20260505084458 10 231 0.0 0.0 0.00 0.00 0.00 90 1012.6
20260505083958 10 231 0.0 0.0 0.00 0.00 0.00 90 1012.6
20260505083458 10 231 0.0 0.0 0.00 0.00 0.00 90 1012.5
20260505082957 10 231 0.0 0.0 0.00 0.00 0.00 90 1012.5
20260505082459 10 231 0.0 0.0 0.00 0.00 0.00 90 1012.5
20260505081957 10 231 0.0 0.0 0.00 0.00 0.00 90 1012.6
20260505081459 10 231 0.0 0.0 0.00 0.00 0.00 89 1012.5
20260505080957 10 231 0.0 0.0 0.00 0.00 0.00 89 1012.5
20260505080457 10 231 0.0 0.0 0.00 0.00 0.00 89 1012.5
20260505080000 11 231 0.0 0.0 0.00 0.00 0.00 89 1012.4
20260505074959 11 231 0.0 0.0 0.00 0.00 0.00 89 1012.4
20260505073959 11 231 0.0 3.2 0.00 0.00 0.00 88 1012.3
20260505073459 11 231 0.0 3.2 0.00 0.00 0.00 88 1012.2
20260505073000 11 218 0.0 0.0 0.00 0.00 0.00 88 1012.2
20260505072459 11 218 0.0 0.0 0.00 0.00 0.00 88 1012.1
20260505071958 11 218 0.0 0.0 0.00 0.00 0.00 87 1012.1
20260505071459 11 218 0.0 0.0 0.00 0.00 0.00 87 1012.0
20260505070959 11 218 0.0 1.6 0.00 0.00 0.00 87 1012.0
20260505065959 11 218 0.0 0.0 0.00 0.00 0.00 86 1011.9
20260505065458 12 218 0.0 1.6 0.00 0.00 0.00 85 1011.8
20260505064959 12 218 0.0 1.6 0.00 0.00 0.00 85 1011.7
20260505064500 12 218 0.0 1.6 0.00 0.00 0.00 85 1011.6
20260505063500 12 244 0.0 3.2 0.00 0.00 0.00 84 1011.6
20260505062958 12 244 0.0 3.2 0.00 0.00 0.00 84 1011.5
20260505061959 12 244 0.0 1.6 0.00 0.00 0.00 83 1011.5
20260505060500 13 281 0.0 3.2 0.00 0.00 0.00 81 1011.4
20260505060000 13 284 0.0 3.2 0.00 0.00 0.00 81 1011.3
20260505055458 13 240 0.0 1.6 0.00 0.00 0.00 80 1011.3
20260505054957 13 240 0.0 1.6 0.00 0.00 0.00 80 1011.2
20260505054459 13 240 0.0 1.6 0.00 0.00 0.00 79 1011.2
20260505053958 13 240 0.0 3.2 0.00 0.00 0.00 79 1011.1
20260505053459 14 247 1.6 3.2 0.00 0.00 0.00 78 1011.1
20260505052459 14 250 0.0 3.2 0.00 0.00 0.00 77 1011.0
20260505051958 14 235 1.6 3.2 0.00 0.00 0.00 77 1010.9
20260505051500 15 264 0.0 3.2 0.00 0.00 0.00 76 1010.9
20260505050958 15 245 3.2 4.8 0.00 0.00 0.00 76 1010.7
20260505050459 15 231 0.0 4.8 0.00 0.00 0.00 75 1010.7
20260505041458 16 227 0.0 1.6 0.00 0.00 0.00 70 1010.2
20260505040958 16 227 0.0 4.8 0.00 0.00 0.00 69 1010.2
20260505040502 17 265 1.6 4.8 0.00 0.00 0.00 69 1010.0
20260505040001 17 283 3.2 4.8 0.00 0.00 0.00 68 1010.0
20260505035500 17 219 1.6 4.8 0.00 0.00 0.00 68 1010.0
20260505034958 17 234 1.6 4.8 0.00 0.00 0.00 67 1009.9
20260505034000 18 255 1.6 9.7 0.00 0.00 0.00 65 1009.7
20260505033459 18 209 3.2 9.7 0.00 0.00 0.00 65 1009.6
20260505032959 18 263 3.2 8.0 0.00 0.00 0.00 64 1009.5
20260505032459 18 254 1.6 9.7 0.00 0.00 0.00 63 1009.5
20260505031958 19 274 1.6 11.3 0.00 0.00 0.00 62 1009.4
20260505031459 19 276 0.0 11.3 0.00 0.00 0.00 61 1009.4
20260505030958 20 240 0.0 8.0 0.00 0.00 0.00 61 1009.3
20260505030459 20 258 1.6 11.3 0.00 0.00 0.00 60 1009.2
20260505025959 20 266 1.6 9.7 0.00 0.00 0.00 59 1009.1
20260505025459 21 231 3.2 9.7 0.00 0.00 0.00 58 1009.1
20260505024958 21 237 3.2 9.7 0.00 0.00 0.00 57 1009.0
20260505024458 21 286 4.8 9.7 0.00 0.00 0.00 56 1008.9
20260505023957 22 286 1.6 9.7 0.00 0.00 0.00 56 1008.9
20260505023458 22 250 1.6 8.0 0.00 0.00 0.00 55 1008.9
20260505022957 22 257 1.6 6.4 0.00 0.00 0.00 55 1008.9
20260505022500 22 250 0.0 6.4 0.00 0.00 0.00 55 1008.8
20260505021957 23 229 3.2 6.4 0.00 0.00 0.00 54 1008.8
20260505021500 23 246 4.8 6.4 0.00 0.00 0.00 53 1008.8
20260505020500 23 245 1.6 9.7 0.00 0.00 0.00 51 1008.8
20260505015959 24 283 3.2 9.7 0.00 0.00 0.00 50 1008.8
20260505015458 24 296 6.4 8.0 0.00 0.00 0.00 50 1008.8
20260505014958 25 278 0.0 11.3 0.00 0.00 0.00 49 1008.7
20260505014500 25 247 3.2 11.3 0.00 0.00 0.00 47 1008.7
20260505013459 25 296 1.6 8.0 0.00 0.00 0.00 47 1008.7
20260505012959 25 236 4.8 8.0 0.00 0.00 0.00 47 1008.8
20260505011958 26 198 1.6 8.0 0.00 0.00 0.00 44 1008.8
20260505011500 26 319 4.8 8.0 0.00 0.00 0.00 44 1008.8
20260505010959 26 295 0.0 9.7 0.00 0.00 0.00 45 1008.8
20260505005958 26 282 1.6 11.3 0.00 0.00 0.00 44 1008.9
20260505005458 26 278 3.2 11.3 0.00 0.00 0.00 43 1008.9
20260505004959 27 304 3.2 9.7 0.00 0.00 0.00 43 1009.0
20260505004458 26 273 1.6 11.3 0.00 0.00 0.00 43 1008.9
20260505003959 26 337 3.2 11.3 0.00 0.00 0.00 44 1008.9
20260505003457 27 247 4.8 12.9 0.00 0.00 0.00 44 1008.9
20260505002458 27 274 1.6 9.7 0.00 0.00 0.00 37 1008.8
20260505002000 28 263 3.2 9.7 0.00 0.00 0.00 41 1008.8
20260505001459 28 283 1.6 11.3 0.00 0.00 0.00 39 1008.8
20260505000959 28 307 4.8 9.7 0.00 0.00 0.00 40 1008.8
20260505000000 28 1 3.2 11.3 0.00 0.00 0.00 39 1008.8
20260504235000 28 18 6.4 16.1 0.00 0.00 0.00 38 1008.8
20260504234457 28 338 4.8 6.4 0.00 0.00 0.00 38 1008.8
20260504233959 28 191 1.6 6.4 0.00 0.00 0.00 36 1008.8
20260504233458 28 360 3.2 6.4 0.00 0.00 0.00 39 1008.9
20260504232958 28 274 0.0 8.0 0.00 0.00 0.00 40 1008.8
20260504231959 28 275 1.6 12.9 0.00 0.00 0.00 36 1008.9
20260504231500 28 319 1.6 12.9 0.00 0.00 0.00 39 1008.9
20260504230459 27 52 1.6 8.0 0.00 0.00 0.00 41 1009.1
20260504225958 27 270 3.2 11.3 0.00 0.00 0.00 40 1009.1
20260504224958 27 248 4.8 9.7 0.00 0.00 0.00 42 1009.3
20260504224458 27 221 3.2 9.7 0.00 0.00 0.00 42 1009.4
20260504223958 27 45 1.6 11.3 0.00 0.00 0.00 41 1009.4
20260504223459 27 349 3.2 11.3 0.00 0.00 0.00 41 1009.4
20260504222958 27 349 8.0 8.0 0.00 0.00 0.00 42 1009.4
20260504222459 27 338 3.2 9.7 0.00 0.00 0.00 41 1009.4
20260504221958 26 324 4.8 9.7 0.00 0.00 0.00 44 1009.5
20260504221459 27 257 9.7 9.7 0.00 0.00 0.00 42 1009.6
20260504220958 27 309 3.2 8.0 0.00 0.00 0.00 42 1009.6
20260504220459 27 232 1.6 9.7 0.00 0.00 0.00 40 1009.6
20260504215459 28 210 1.6 11.3 0.00 0.00 0.00 40 1009.6
20260504215001 28 295 3.2 11.3 0.00 0.00 0.00 40 1009.7
20260504213959 27 289 4.8 9.7 0.00 0.00 0.00 41 1009.8
20260504212458 27 326 3.2 9.7 0.00 0.00 0.00 42 1009.8
20260504211959 27 283 4.8 8.0 0.00 0.00 0.00 40 1009.9
20260504211459 27 288 1.6 11.3 0.00 0.00 0.00 41 1009.9
20260504211000 27 263 4.8 11.3 0.00 0.00 0.00 39 1009.8
20260504210459 27 304 4.8 9.7 0.00 0.00 0.00 39 1009.8
20260504210001 27 233 6.4 1054.1 4.95 0.00 0.00 36
20260504204958 26 344 1.6 9.7 0.00 0.00 0.00 41 1010.0
20260504204458 26 305 4.8 9.7 0.00 0.00 0.00 38 1010.0
20260504203959 26 344 4.8 9.7 0.00 0.00 0.00 38 1010.0
20260504203458 26 294 3.2 8.0 0.00 0.00 0.00 40 1010.0
20260504202958 26 284 1.6 6.4 0.00 0.00 0.00 38 1010.0
20260504202459 26 248 4.8 6.4 0.00 0.00 0.00 39 1010.0
20260504201958 25 306 3.2 9.7 0.00 0.00 0.00 40 1010.0
20260504201458 26 260 9.7 9.7 0.00 0.00 0.00 39 1010.0
20260504200958 26 323 8.0 8.0 0.00 0.00 0.00 39 1010.1
20260504200500 26 311 3.2 6.4 0.00 0.00 0.00 40 1010.1
20260504195957 26 278 1.6 6.4 0.00 0.00 0.00 42 1010.1
20260504194457 26 291 1.6 11.3 0.00 0.00 0.00 42 1010.2
20260504193958 26 311 1.6 11.3 0.00 0.00 0.00 44 1010.2
20260504193459 25 360 3.2 9.7 0.00 0.00 0.00 44 1010.3
20260504193000 25 110 1.6 6.4 0.00 0.00 0.00 44 1010.3
20260504192458 24 271 1.6 8.0 0.00 0.00 0.00 45 1010.3
20260504191958 25 220 3.2 9.7 0.00 0.00 0.00 42 1010.4
20260504191459 25 283 1.6 9.7 0.00 0.00 0.00 44 1010.4
20260504190959 24 302 3.2 6.4 0.00 0.00 0.00 48 1010.5
20260504190459 24 232 4.8 9.7 0.00 0.00 0.00 44 1010.5
20260504185959 24 276 4.8 9.7 0.00 0.00 0.00 45 1010.4
20260504185458 25 207 1.6 6.4 0.00 0.00 0.00 47 1010.5
20260504184500 24 260 1.6 4.8 0.00 0.00 0.00 49 1010.6
20260504183500 23 154 3.2 8.0 0.00 0.00 0.00 52 1010.7
20260504182958 23 268 4.8 8.0 0.00 0.00 0.00 49 1010.7
20260504181959 23 274 3.2 8.0 0.00 0.00 0.00 50 1010.9
20260504181459 23 360 1.6 8.0 0.00 0.00 0.00 49 1010.9
20260504181001 22 226 1.6 8.0 0.00 0.00 0.00 52 1010.8
20260504180501 23 279 4.8 8.0 0.00 0.00 0.00 49 1010.7
20260504180001 23 262 0.0 4.8 0.00 0.00 0.00 51 1010.7
20260504175458 23 295 1.6 4.8 0.00 0.00 0.00 48 1010.7
20260504174958 22 195 3.2 4.8 0.00 0.00 0.00 52 1010.7
20260504174458 22 103 1.6 4.8 0.00 0.00 0.00 50 1010.7
20260504173958 22 220 0.0 4.8 0.00 0.00 0.00 56 1010.7
20260504173502 22 274 1.6 3.2 0.00 0.00 0.00 55 1010.7
20260504172957 21 215 1.6 3.2 0.00 0.00 0.00 55 1010.7
20260504172457 21 244 1.6 4.8 0.00 0.00 0.00 55 1010.7
20260504171459 21 250 3.2 6.4 0.00 0.00 0.00 57 1010.7
20260504170958 21 253 1.6 4.8 0.00 0.00 0.00 55 1010.7
20260504170500 21 237 3.2 4.8 0.00 0.00 0.00 55 1010.7
20260504150958 14 359 0.0 0.0 0.00 0.00 0.00 87 1010.1
20260504150459 13 359 0.0 0.0 0.00 0.00 0.00 90 1010.0
20260504140957 10 359 0.0 0.0 0.00 0.00 0.00 93 1009.7
20260504140459 9 359 0.0 0.0 0.00 0.00 0.00 93 1009.6
20260504130458 9 359 0.0 0.0 0.00 0.00 0.00 92 1009.0
20260504110458 10 359 0.0 0.0 0.00 0.00 0.00 91 1008.9